Weather Roundup
Issued by NWS

Home | Current Version | Previous Version | Text Only | Print | Product List | Glossary On
Versions: 1 2 3 4 5 6 7 8 9 10 11 12 13 14 15 16 17 18 19 20 21 22 23 24 25 26 27 28 29 30 31 32 33 34 35 36 37 38 39 40 41 42 43 44 45 46 47 48 49 50
000
NZUS93 KARX 201910
HRRWXR

CURRENT HOURLY OBSERVATIONS ACROSS
MUCH OF THE UPPER MISSISSIPPI VALLEY
NATIONAL WEATHER SERVICE LA CROSSE WI
200 PM CDT WED AUG 20 2014


...SOUTHEAST MINNESOTA...


CITY           SKY/WX    TMP DP  RH WIND       PRES   REMARKS
ROCHESTER      CLOUDY    80  67  64 SW9       29.89R
ROCHESTER/MAYO FAIR      80  61  52 W5        29.88S
WINONA         PTSUNNY   79  66  65 CALM      29.86S
AUSTIN         CLOUDY    81  66  61 S7        29.87S
ALBERT LEA     CLOUDY    82  64  54 S9        29.86F
DODGE CENTER   PTSUNNY   81  66  61 SW6       29.88F
PRESTON        CLOUDY    79  71  76 SW5       29.89S
OWATONNA       NOT AVBL
FARIBAULT      PTSUNNY   86  61  42 SW3       29.86F
$$

...ELSEWHERE IN MINNESOTA...


CITY           SKY/WX    TMP DP  RH WIND       PRES   REMARKS
MINNEAPOLIS    PTSUNNY   80  64  58 SE8       29.86F
INTNL FALLS    PTSUNNY   75  58  55 E10G17    29.87F
DULUTH         CLOUDY    70  58  65 E8        29.90S
RED WING       MOSUNNY   81  63  54 SE5       29.86S
REDWOOD FALLS  PTSUNNY   84  66  54 SE15      29.82F
MANKATO        MOSUNNY   81  66  61 S9        29.85F
WORTHINGTON    CLOUDY    79  18  10 S10       29.84F
FAIRMONT       PTSUNNY   77  64  65 S10       29.86F
$$

...SOUTHWEST WISCONSIN...


CITY           SKY/WX    TMP DP  RH WIND       PRES   REMARKS
LA CROSSE      MOSUNNY   83  65  54 CALM      29.85F
PRAIRIE DU CHI PTSUNNY   83  64  51 S5        29.85S
BOSCOBEL       MOSUNNY   84  66  54 W8        29.86F
LONE ROCK      SUNNY     88  65  46 VRB5      29.86F HX  90
PLATTEVILLE    SUNNY     82  67  61 S10       29.89F
FORT MC COY    MOSUNNY   80  62  53 CALM      29.87F
CAMP DOUGLAS   MOSUNNY   81  66  61 NW5       29.88S
VIROQUA        MOCLDY    81  64  57 W8        29.89S
WIS DELLS      PTSUNNY   83  60  46 W7        29.88S
$$

...ELSEWHERE IN WISCONSIN...


CITY           SKY/WX    TMP DP  RH WIND       PRES   REMARKS
MILWAUKEE      MOSUNNY   75  66  73 E13       29.88F
MADISON        PTSUNNY   84  64  50 VRB5      29.87F
GREEN BAY      CLOUDY    69  62  78 CALM      29.90S
EAU CLAIRE     MOSUNNY   76  62  62 NE8       29.88F
BLACK RVR FLS  FAIR      79  62  55 NW5       29.87S
MEDFORD        CLOUDY    68  59  73 CALM      29.92R
WAUSAU         LGT RAIN  70  61  73 S6        29.89F
WIS RAPIDS     PTSUNNY   76  62  62 N5        29.90F
MARSHFIELD     MOSUNNY   72  61  68 VRB5      29.91S
RICE LAKE      CLOUDY    72  59  64 CALM      29.91R
$$

...NORTHEAST IOWA...


CITY           SKY/WX    TMP DP  RH WIND       PRES   REMARKS
WATERLOO       CLOUDY    76  67  73 CALM      29.85R
DUBUQUE        PTSUNNY   80  66  62 MISG      29.88F
DECORAH        CLOUDY    81  68  65 VRB5      29.87S
MASON CITY     CLOUDY    75  67  76 S9        29.90R
CHARLES CITY   CLOUDY    79  68  69 S7        29.88R
OELWEIN        CLOUDY    79  68  69 S7        29.87S
$$

...ELSEWHERE IN IOWA...


CITY           SKY/WX    TMP DP  RH WIND       PRES   REMARKS
DES MOINES     CLOUDY    78  69  73 S9        29.87R
IOWA CITY      CLOUDY    75  70  84 S10       29.87S
FORT DODGE     CLOUDY    72  68  88 S6        29.87S
MARSHALLTOWN   CLOUDY    71  68  90 W8        29.90R
CEDAR RAPIDS   CLOUDY    74  68  81 E3        29.84F
$$

...NORTHERN ILLINOIS...


CITY           SKY/WX    TMP DP  RH WIND       PRES   REMARKS
CHICAGO-OHARE  PTSUNNY   85  64  49 SW14      29.89F
DUPAGE         MOSUNNY   85  67  54 SW15      29.91F
CHICAGO-MIDWAY PTSUNNY   85  67  54 SW14G25   29.90F
MOLINE         LGT RAIN  77  70  79 SE7       29.87F
ROCKFORD       PTSUNNY   85  65  51 SW10      29.91F
STERLING       PTSUNNY   82  66  57 W5        29.89F
PEORIA         CLOUDY    75  69  81 S14       29.94S
$$

NOTE: "FAIR" INDICATES FEW OR NO CLOUDS BELOW 12,000 FEET WITH NO
SIGNIFICANT WEATHER AND/OR OBSTRUCTIONS TO VISIBILITY. WIND
SPEEDS ARE IN MILES-PER-HOUR.



USA.gov is the U.S. government's official web portal to all federal, state and local government web resources and services.